This is the latest recevied weather packets stored in our database for station/object SP6PGH-13. If no packets are shown the sender has not sent any weather packets the latest 10 day(s).
| Time | Temp. | Humidity | Pressure | Rain* | Wind** | Luminosity | Snow |
|---|---|---|---|---|---|---|---|
| 1777370004 | 11.67° C | 30% | 1011.2 hPa | - | - | 697 W/m² | - |
| 1777369103 | 11.67° C | 30% | 1011.2 hPa | - | - | 684 W/m² | - |
| 1777368202 | 12.22° C | 31% | 1011.2 hPa | - | - | 658 W/m² | - |
| 1777367301 | 11.11° C | 31% | 1011.3 hPa | - | - | 637 W/m² | - |
| 1777366400 | 11.11° C | 32% | 1011.3 hPa | - | - | 613 W/m² | - |
| 1777365499 | 10.56° C | 32% | 1011.1 hPa | - | - | 590 W/m² | - |
| 1777364598 | 10° C | 34% | 1011.1 hPa | - | - | 560 W/m² | - |
| 1777363697 | 10° C | 39% | 1011.1 hPa | - | - | 519 W/m² | - |
| 1777362796 | 9.44° C | 38% | 1011.1 hPa | - | - | 474 W/m² | - |
| 1777361894 | 9.44° C | 37% | 1011.1 hPa | - | - | 438 W/m² | - |
| 1777360993 | 8.89° C | 40% | 1011.1 hPa | - | - | 393 W/m² | - |
| 1777360091 | 8.33° C | 43% | 1011 hPa | - | - | 345 W/m² | - |
| 1777359190 | 8.33° C | 44% | 1011 hPa | - | - | 304 W/m² | - |
| 1777358289 | 6.67° C | 45% | 1011 hPa | - | - | 262 W/m² | - |
| 1777357388 | 6.11° C | 48% | 1011 hPa | - | - | 58 W/m² | - |
| 1777356487 | 6.11° C | 49% | 1010.9 hPa | - | - | 56 W/m² | - |
| 1777355586 | 5.56° C | 50% | 1010.8 hPa | - | - | 54 W/m² | - |
| 1777354686 | 5.56° C | 50% | 1010.7 hPa | - | - | 49 W/m² | - |
| 1777353785 | 5° C | 52% | 1010.7 hPa | - | - | 45 W/m² | - |
| 1777352883 | 5° C | 52% | 1010.5 hPa | - | - | 62 W/m² | - |
| 1777351982 | 4.44° C | 53% | 1010.4 hPa | - | - | 52 W/m² | - |
| 1777351081 | 4.44° C | 54% | 1010 hPa | - | - | 38 W/m² | - |
| 1777350180 | 4.44° C | 55% | 1009.9 hPa | - | - | 27 W/m² | - |
| 1777349279 | 4.44° C | 53% | 1009.7 hPa | - | - | 19 W/m² | - |
| 1777348378 | 4.44° C | 53% | 1009.6 hPa | - | - | 12 W/m² | - |
* Rain since midnight (hover to see other rain measurements)
** Current wind speed in m/s (hover to see current wind gust speed)